Cadillac, MI

8:53 AM EDT on September 18, 2019 (GMT -0400)
Wexford County

Weather History for KCAD - August, 2019

Change the Weather History Date:

Sunday, August 25, 2019

  Actual Average Record
Temperature  
Mean Temperature 61 °F -  
Max Temperature 77 °F 75 °F 94 °F (1948)
Min Temperature 45 °F 51 °F 32 °F (1977)
Degree Days  
Heating Degree Days 4    
Growing Degree Days 11 (Base 50)    
Moisture  
Dew Point 52 °F    
Average Humidity 67    
Maximum Humidity 91    
Minimum Humidity 40    
Precipitation  
Precipitation 0.00 in - - ()
Sea Level Pressure  
Sea Level Pressure 30.20 in    
Wind  
Wind Speed 6 mph (ESE)    
Max Wind Speed 16 mph    
Max Gust Speed 20 mph    
Visibility 10 miles    
Events      
Averages and records for this station are not official NWS values.
T = Trace of Precipitation, MM = Missing Value Source: NWS Daily Summary

Daily Weather History Graph

Daily Weather History Graph

Search for Another Location

Airport or City:

Astronomy

Aug. 25, 2019 Rise Set
Actual Time 6:56 AM EDT 8:30 PM EDT
Civil Twilight 6:25 AM EDT 9:00 PM EDT
Nautical Twilight 5:48 AM EDT 9:37 PM EDT
Astronomical Twilight 5:09 AM EDT 10:17 PM EDT
Moon 1:23 AM EDT (8/25) 4:58 PM EDT (8/25)
Length of Visible Light 14h 35m
Length of Day
13h 34m
Waning Crescent, 29% of the Moon is Illuminated
Aug 25
Waning Crescent
Aug 30
New
Sep 5
First Quarter
Sep 14
Full
Sep 21
Last Quarter

Hourly Weather History & Observations

Time (EDT) Temp. Dew Point Humidity Pressure Visibility Wind Dir Wind Speed Gust Speed Precip Events Conditions
12:15 AM 58.1 °F 51.8 °F 80% 30.28 in 10.0 mi SE 8.1 mph - N/A   Clear
12:35 AM 57.2 °F 51.8 °F 82% 30.28 in 10.0 mi ESE 5.8 mph - N/A   Clear
12:58 AM 57.0 °F 52.2 °F 84% 30.27 in 10.0 mi ESE 6.9 mph - N/A   Clear
1:16 AM 56.7 °F 52.3 °F 85% 30.27 in 10.0 mi ESE 6.9 mph - N/A   Clear
1:35 AM 56.5 °F 52.5 °F 87% 30.27 in 10.0 mi SE 6.9 mph - N/A   Clear
1:55 AM 56.1 °F 52.5 °F 88% 30.27 in 10.0 mi ESE 5.8 mph - N/A   Clear
2:19 AM 55.4 °F 52.7 °F 91% 30.26 in 10.0 mi ESE 5.8 mph - N/A   Clear
2:37 AM 54.9 °F 52.2 °F 91% 30.26 in 10.0 mi ESE 3.5 mph - N/A   Clear
2:56 AM 54.9 °F 52.2 °F 91% 30.26 in 10.0 mi Calm Calm - N/A   Clear
3:15 AM 55.0 °F 52.3 °F 91% 30.26 in 10.0 mi Calm Calm - N/A   Clear
3:35 AM 54.9 °F 52.2 °F 91% 30.26 in 10.0 mi ESE 3.5 mph - N/A   Clear
3:58 AM 53.4 °F 50.9 °F 91% 30.26 in 10.0 mi ESE 4.6 mph - N/A   Clear
4:16 AM 52.9 °F 50.2 °F 91% 30.25 in 10.0 mi ESE 3.5 mph - N/A   Clear
4:35 AM 53.1 °F 50.4 °F 91% 30.25 in 10.0 mi Calm Calm - N/A   Clear
4:55 AM 49.1 °F 46.6 °F 91% 30.25 in 10.0 mi Calm Calm - N/A   Clear
5:19 AM 47.8 °F 45.3 °F 91% 30.25 in 10.0 mi Calm Calm - N/A   Clear
5:37 AM 46.6 °F 43.9 °F 90% 30.25 in 10.0 mi Calm Calm - N/A   Clear
5:55 AM 46.8 °F 44.2 °F 91% 30.24 in 10.0 mi Calm Calm - N/A   Clear
6:15 AM 49.8 °F 47.1 °F 90% 30.24 in 10.0 mi East 3.5 mph - N/A   Clear
6:35 AM 45.3 °F 42.6 °F 90% 30.25 in 10.0 mi Calm Calm - N/A   Clear
6:58 AM 46.2 °F 43.7 °F 91% 30.25 in 10.0 mi Calm Calm - N/A   Clear
7:15 AM 45.5 °F 42.8 °F 90% 30.25 in 10.0 mi Calm Calm - N/A   Clear
7:35 AM 46.9 °F 44.4 °F 91% 30.26 in 10.0 mi Calm Calm - N/A   Clear
7:36 AM 47.1 °F 44.6 °F 91% 30.26 in 10.0 mi Calm Calm - N/A   Clear
7:55 AM 50.0 °F 47.5 °F 91% 30.26 in 10.0 mi Calm Calm - N/A   Clear
8:19 AM 53.8 °F 51.1 °F 91% 30.26 in 10.0 mi Calm Calm - N/A   Clear
8:37 AM 57.0 °F 54.3 °F 91% 30.26 in 10.0 mi Calm Calm - N/A   Clear
8:55 AM 59.5 °F 55.8 °F 87% 30.26 in 10.0 mi Calm Calm - N/A   Clear
9:15 AM 62.1 °F 56.3 °F 81% 30.26 in 10.0 mi Calm Calm - N/A   Clear
9:35 AM 65.3 °F 55.0 °F 69% 30.26 in 10.0 mi SE 8.1 mph - N/A   Clear
9:40 AM 65.5 °F 55.0 °F 69% 30.25 in 10.0 mi SE 6.9 mph - N/A   Clear
9:58 AM 66.9 °F 54.3 °F 64% 30.25 in 10.0 mi SE 6.9 mph - N/A   Clear
10:16 AM 68.4 °F 53.6 °F 59% 30.25 in 10.0 mi SE 6.9 mph - N/A   Clear
10:35 AM 69.6 °F 51.6 °F 53% 30.25 in 10.0 mi ESE 10.4 mph - N/A   Clear
10:55 AM 70.7 °F 51.8 °F 51% 30.25 in 10.0 mi ESE 12.7 mph - N/A   Clear
11:19 AM 71.8 °F 51.6 °F 49% 30.24 in 10.0 mi ESE 10.4 mph 16.1 mph N/A   Clear
11:37 AM 72.0 °F 51.4 °F 48% 30.23 in 10.0 mi ESE 11.5 mph - N/A   Scattered Clouds
11:55 AM 73.6 °F 51.8 °F 46% 30.23 in 10.0 mi ESE 11.5 mph - N/A   Scattered Clouds
12:15 PM 73.0 °F 51.8 °F 47% 30.22 in 10.0 mi SE 10.4 mph - N/A   Mostly Cloudy
12:35 PM 73.6 °F 51.8 °F 46% 30.21 in 10.0 mi SE 5.8 mph - N/A   Overcast
12:40 PM 73.4 °F 52.2 °F 47% 30.21 in 10.0 mi ESE 10.4 mph - N/A   Mostly Cloudy
12:58 PM 72.1 °F 52.5 °F 50% 30.21 in 10.0 mi SE 5.8 mph 9.2 mph N/A   Mostly Cloudy
1:16 PM 72.5 °F 51.8 °F 48% 30.20 in 10.0 mi SE 8.1 mph - N/A   Overcast
1:35 PM 75.6 °F 51.6 °F 43% 30.20 in 10.0 mi East 11.5 mph - N/A   Mostly Cloudy
1:36 PM 75.7 °F 51.8 °F 43% 30.20 in 10.0 mi ESE 10.4 mph - N/A   Mostly Cloudy
1:55 PM 73.9 °F 51.3 °F 45% 30.20 in 10.0 mi East 10.4 mph - N/A   Mostly Cloudy
1:56 PM 73.4 °F 51.3 °F 46% 30.20 in 10.0 mi ESE 9.2 mph - N/A   Mostly Cloudy
2:19 PM 73.8 °F 51.1 °F 45% 30.19 in 10.0 mi ESE 6.9 mph 19.6 mph N/A   Mostly Cloudy
2:37 PM 76.5 °F 51.1 °F 41% 30.19 in 10.0 mi South 9.2 mph - N/A   Overcast
2:55 PM 74.5 °F 50.7 °F 43% 30.19 in 10.0 mi SE 11.5 mph - N/A   Mostly Cloudy
2:56 PM 74.5 °F 50.9 °F 43% 30.19 in 10.0 mi SE 10.4 mph - N/A   Mostly Cloudy
3:15 PM 76.6 °F 50.7 °F 40% 30.17 in 10.0 mi ESE 10.4 mph - N/A   Mostly Cloudy
3:16 PM 76.5 °F 50.5 °F 40% 30.17 in 10.0 mi East 10.4 mph - N/A   Mostly Cloudy
3:35 PM 77.7 °F 52.0 °F 41% 30.17 in 10.0 mi ESE 9.2 mph - N/A   Overcast
3:58 PM 77.0 °F 51.1 °F 40% 30.15 in 10.0 mi East 13.8 mph 18.4 mph N/A   Scattered Clouds
4:16 PM 75.2 °F 51.3 °F 43% 30.15 in 10.0 mi East 15.0 mph - N/A   Scattered Clouds
4:35 PM 75.9 °F 51.6 °F 43% 30.14 in 10.0 mi ESE 16.1 mph - N/A   Scattered Clouds
4:55 PM 75.2 °F 51.6 °F 44% 30.13 in 10.0 mi ESE 13.8 mph 18.4 mph N/A   Scattered Clouds
5:19 PM 75.2 °F 51.4 °F 43% 30.13 in 10.0 mi ESE 10.4 mph 16.1 mph N/A   Scattered Clouds
5:37 PM 76.1 °F 52.0 °F 43% 30.12 in 10.0 mi ESE 13.8 mph 18.4 mph N/A   Clear
5:55 PM 76.5 °F 51.8 °F 42% 30.11 in 10.0 mi SE 11.5 mph 19.6 mph N/A   Scattered Clouds
5:56 PM 76.5 °F 51.6 °F 42% 30.11 in 10.0 mi ESE 12.7 mph 19.6 mph N/A   Scattered Clouds
6:15 PM 75.4 °F 51.6 °F 43% 30.11 in 10.0 mi ESE 11.5 mph - N/A   Scattered Clouds
6:35 PM 74.8 °F 52.0 °F 45% 30.11 in 10.0 mi SE 10.4 mph 16.1 mph N/A   Mostly Cloudy
6:58 PM 73.2 °F 52.2 °F 48% 30.10 in 10.0 mi SE 11.5 mph 16.1 mph N/A   Scattered Clouds
7:16 PM 71.2 °F 52.2 °F 51% 30.10 in 10.0 mi SE 11.5 mph 18.4 mph N/A   Clear
7:35 PM 70.2 °F 52.5 °F 53% 30.10 in 10.0 mi ESE 8.1 mph - N/A   Clear
7:55 PM 68.7 °F 52.9 °F 57% 30.10 in 10.0 mi ESE 6.9 mph - N/A   Clear
8:37 PM 66.7 °F 54.7 °F 65% 30.09 in 10.0 mi ESE 6.9 mph - N/A   Scattered Clouds
8:55 PM 65.3 °F 54.9 °F 69% 30.10 in 10.0 mi ESE 5.8 mph - N/A   Clear
9:15 PM 64.4 °F 55.0 °F 72% 30.10 in 10.0 mi ESE 5.8 mph - N/A   Clear
9:35 PM 64.2 °F 55.0 °F 72% 30.11 in 10.0 mi ESE 6.9 mph - N/A   Mostly Cloudy
9:39 PM 63.9 °F 54.9 °F 72% 30.11 in 10.0 mi ESE 5.8 mph - N/A   Mostly Cloudy
9:58 PM 63.5 °F 54.7 °F 73% 30.11 in 10.0 mi ESE 5.8 mph - N/A   Scattered Clouds
10:16 PM 62.6 °F 54.9 °F 76% 30.10 in 10.0 mi ESE 6.9 mph - N/A   Clear
10:55 PM 62.6 °F 55.6 °F 78% 30.10 in 10.0 mi ESE 4.6 mph - N/A   Clear
10:56 PM 62.4 °F 55.6 °F 78% 30.10 in 10.0 mi ESE 4.6 mph - N/A   Clear
11:19 PM 61.7 °F 56.3 °F 82% 30.10 in 10.0 mi ESE 5.8 mph - N/A   Mostly Cloudy
11:37 PM 61.0 °F 56.5 °F 85% 30.10 in 10.0 mi ESE 5.8 mph - N/A   Mostly Cloudy
11:55 PM 62.2 °F 56.8 °F 82% 30.10 in 10.0 mi ESE 6.9 mph - N/A   Overcast
11:56 PM 62.2 °F 56.8 °F 82% 30.10 in 10.0 mi ESE 6.9 mph - N/A   Overcast